This demonstration page uses our WeatherBlox Daily Observations layout. Learn more.

Left ArrowRight Arrow

Hourly Observations for November 23, 2019

Temp ( °F °C ) Dew Point ( °F °C ) Humidity (%) Winds ( mph kmh ) Pressure ( in mb ) Visibility ( mi km ) Precip ( " mm )
12:15 am 00:15 Clear 34 1 28 -2 81 81 Calm 30.12 1020 10 16.0934 0 0
12:35 am 00:35 Clear 34 1 30 -1 87 87 Calm 30.12 1020 10 16.0934 0 0
12:55 am 00:55 Clear 32 0 30 -1 93 93 Calm 30.12 1020 10 16.0934 0 0
1:15 am 01:15 Clear 32 0 28 -2 87 87 Calm 30.12 1020 10 16.0934 0 0
1:35 am 01:35 Clear 32 0 28 -2 87 87 N 3 6 30.12 1020 10 16.0934 0 0
1:55 am 01:55 Clear 34 1 30 -1 87 87 NNE 5 7 30.11 1020 10 16.0934 0 0
2:15 am 02:15 Clear 32 0 30 -1 93 93 NE 6 9 30.11 1020 10 16.0934 0 0
2:35 am 02:35 Clear 34 1 30 -1 87 87 NE 6 9 30.11 1020 10 16.0934 0 0
2:55 am 02:55 Clear 34 1 28 -2 81 81 NE 5 7 30.11 1020 10 16.0934 0 0
3:35 am 03:35 Clear 30 -1 28 -2 93 93 Calm 30.11 1020 10 16.0934 0 0
3:55 am 03:55 Clear 30 -1 28 -2 93 93 W 3 6 30.11 1020 10 16.0934 0 0
4:15 am 04:15 Clear 28 -2 28 -2 100 100 W 5 7 30.11 1019 10 16.0934 0 0
4:35 am 04:35 Clear 30 -1 30 -1 100 100 Calm 30.1 1019 10 16.0934 0 0
4:55 am 04:55 Clear 30 -1 28 -2 93 93 Calm 30.1 1019 10 16.0934 0 0
5:15 am 05:15 Clear 28 -2 28 -2 100 100 WNW 3 6 30.12 1020 10 16.0934 0 0
5:35 am 05:35 Clear 30 -1 28 -2 93 93 Calm 30.11 1020 10 16.0934 0 0
5:55 am 05:55 Clear 30 -1 28 -2 93 93 Calm 30.11 1020 10 16.0934 0 0
6:15 am 06:15 Clear 28 -2 27 -3 93 93 W 5 7 30.12 1020 10 16.0934 0 0
6:35 am 06:35 Clear 28 -2 28 -2 100 100 Calm 30.13 1020 10 16.0934 0 0
6:55 am 06:55 Clear 28 -2 28 -2 100 100 Calm 30.13 1020 10 16.0934 0 0
7:15 am 07:15 Sunny 27 -3 27 -3 100 100 Calm 30.13 1020 10 16.0934 0 0
7:35 am 07:35 Sunny 27 -3 27 -3 100 100 Calm 30.13 1020 10 16.0934 0 0
7:55 am 07:55 Sunny 30 -1 30 -1 100 100 Calm 30.11 1020 10 16.0934 0 0
8:15 am 08:15 Sunny 30 -1 28 -2 93 93 Calm 30.12 1020 10 16.0934 0 0
8:35 am 08:35 Sunny 32 0 30 -1 93 93 Calm 30.12 1020 10 16.0934 0 0
8:55 am 08:55 Sunny 32 0 30 -1 93 93 Calm 30.12 1020 10 16.0934 0 0
9:15 am 09:15 Sunny 34 1 30 -1 87 87 Calm 30.12 1020 10 16.0934 0 0
9:35 am 09:35 Sunny 36 2 32 0 87 87 S 3 6 30.12 1020 10 16.0934 0 0
10:15 am 10:15 Sunny 36 2 30 -1 81 81 SE 3 6 30.11 1020 10 16.0934 0 0
10:35 am 10:35 Sunny 37 3 30 -1 75 75 Calm 30.1 1019 10 16.0934 0 0
10:55 am 10:55 Sunny 37 3 32 0 81 81 S 5 7 30.09 1019 10 16.0934 0 0
11:15 am 11:15 Sunny 37 3 32 0 81 81 SSW 6 9 30.07 1018 10 16.0934 0 0
11:35 am 11:35 Sunny 37 3 30 -1 75 75 S 7 11 30.06 1018 10 16.0934 0 0
11:55 am 11:55 Sunny 39 4 30 -1 70 70 S 6 9 30.04 1017 10 16.0934 0 0
12:15 pm 12:15 Sunny 41 5 32 0 70 70 S 7 11 30.02 1017 10 16.0934 0 0
12:35 pm 12:35 Sunny 41 5 30 -1 66 66 S 7 11 30.01 1016 10 16.0934 0 0
12:55 pm 12:55 Sunny 41 5 32 0 70 70 S 8 13 30.01 1016 10 16.0934 0 0
1:15 pm 13:15 Sunny 41 5 32 0 70 70 S 8 13 29.99 1016 10 16.0934 0 0
1:35 pm 13:35 Partly Cloudy 41 5 32 0 70 70 SSE 9 15 29.97 1015 10 16.0934 0 0
1:55 pm 13:55 Cloudy 41 5 32 0 70 70 S 8 13 29.96 1015 10 16.0934 0 0
2:15 pm 14:15 Cloudy 41 5 32 0 70 70 S 10 17 29.96 1015 10 16.0934 0 0
2:35 pm 14:35 Cloudy 41 5 32 0 70 70 S 7 11 29.94 1014 10 16.0934 0 0
2:55 pm 14:55 Cloudy 41 5 32 0 70 70 S 9 15 29.94 1014 10 16.0934 0 0
3:15 pm 15:15 Cloudy 41 5 32 0 70 70 S 7 11 29.93 1014 10 16.0934 0 0
3:35 pm 15:35 Cloudy 41 5 32 0 70 70 S 8 13 29.91 1013 10 16.0934 0 0
4:15 pm 16:15 Cloudy 41 5 32 0 70 70 S 7 11 29.9 1013 10 16.0934 0 0
4:35 pm 16:35 Cloudy 41 5 32 0 70 70 S 9 15 29.89 1012 10 16.0934 0 0
4:55 pm 16:55 Cloudy 41 5 32 0 70 70 SE 7 11 29.86 1011 10 16.0934 0 0
5:15 pm 17:15 Cloudy 41 5 32 0 70 70 S 3 6 29.86 1011 10 16.0934 0 0
5:35 pm 17:35 Cloudy 41 5 34 1 76 76 S 10 17 29.85 1011 10 16.0934 0 0
5:55 pm 17:55 Cloudy 39 4 34 1 81 81 S 3 6 29.86 1011 10 16.0934 0 0
6:15 pm 18:15 Cloudy 39 4 34 1 81 81 Calm 29.84 1010 10 16.0934 0 0
6:35 pm 18:35 Cloudy 39 4 36 2 87 87 Calm 29.84 1010 10 16.0934 0 0
6:55 pm 18:55 Cloudy 39 4 36 2 87 87 S 3 6 29.84 1010 10 16.0934 0 0
7:15 pm 19:15 Cloudy 37 3 36 2 93 93 S 5 7 29.83 1010 10 16.0934 0 0
7:35 pm 19:35 Cloudy 37 3 36 2 93 93 Calm 29.82 1010 10 16.0934 0 0
7:55 pm 19:55 Cloudy 37 3 36 2 93 93 ESE 5 7 29.79 1009 5 8.0467 0.01 0.254
8:15 pm 20:15 Cloudy 37 3 37 3 100 100 Calm 29.78 1008 10 16.0934 0 0
8:35 pm 20:35 Cloudy 37 3 37 3 100 100 SE 5 7 29.76 1008 5 8.0467 0.01 0.254
8:55 pm 20:55 Cloudy 37 3 37 3 100 100 ESE 6 9 29.74 1007 7 11.26538 0.02 0.508
9:15 pm 21:15 Cloudy 37 3 37 3 100 100 SW 3 6 29.75 1007 2.5 4.02335 0.03 0.762
9:35 pm 21:35 Cloudy 37 3 37 3 100 100 Calm 29.73 1007 4 6.43736 0.05 1.27
9:55 pm 21:55 Cloudy 37 3 37 3 100 100 NW 3 6 29.72 1006 4 6.43736 0.08 2.032
10:15 pm 22:15 Cloudy 37 3 37 3 100 100 Calm 29.71 1006 4 6.43736 0 0
10:35 pm 22:35 Cloudy 37 3 37 3 100 100 Calm 29.69 1005 4 6.43736 0 0
10:55 pm 22:55 Cloudy 36 2 36 2 100 100 Calm 29.68 1005 1.5 2.41401 0.06 1.524
11:15 pm 23:15 Cloudy 36 2 36 2 100 100 ENE 5 7 29.64 1004 1.25 2.011675 0.08 2.032
11:35 pm 23:35 Cloudy 36 2 36 2 100 100 Calm 29.63 1003 2 3.21868 0.16 4.064
11:55 pm 23:55 Cloudy 36 2 36 2 100 100 ENE 6 9 29.62 1003 1.25 2.011675 0.3 7.62

Powered by AerisWeather